Погода в О-Грове

Испания     42°29′26″N   8°52′17″W
темп.,
°C
ветер,
м/с
пор.,
м/с
влажн.,
%
обл.,
%
осадки,
мм/ч
давл.,
гПа
погр.,
м
24 июля, сб
сб2423:00+15ю259724 0.6 1016138
02:00+15ююв229769 1.0 101677
05:00+15ююв129783 0.3 101593
08:00+15ююв139695 0.4 1015123
11:00+17ююз249298 0.2 1016334
14:00+20юз347740 0.8 1017796
17:00+21зюз346625 0.1 10161005
20:00+19зюз3375100 0.1 1016713
25 июля, вс
вс2523:00+15ю1198100 0.0 101712
02:00+14в119899 0.0 101612
05:00+13в119853 0.0 101529
08:00+13всв12967 0.0 101537
11:00+21зсз11580 0.0 1015577
14:00+23зюз43495 0.0 10151085
17:00+22з34525 0.0 1015770
20:00+21з23615 0.0 1015464
26 июля, пн
пн2623:00+15св12903 0.0 101622
02:00+14св249713 0.0 101781
05:00+14св259717 0.0 101699
08:00+14св25946 0.0 1017107
11:00+21с24580 0.0 1018774
14:00+26зсз34440 0.0 10171436
17:00+25з34500 0.0 1016777
20:00+26с34460 0.0 10151151
27 июля, вт
вт2723:00+18ссв49750 0.0 1017399
02:00+15ссв38956 0.0 1018241
05:00+14ссв389824 0.0 1017248
08:00+14ссв389514 0.0 1018310
11:00+21ссв36620 0.0 1017745
14:00+27ссз24420 0.0 10161311
17:00+28сз44380 0.0 10151564
20:00+25с46460 0.0 1015906
28 июля, ср
ср2823:00+18ссв38750 0.0 1018403
02:00+14ссв389612 0.0 1018254
05:00+14ссв379835 0.0 1018249
08:00+15ссв38916 0.0 1018381
11:00+21ссв36570 0.0 1018871
14:00+26ссз35380 0.0 10171336
17:00+28ссз453243 0.0 10161518
20:00+25с474340 0.0 1016841